Погода в Адиль-Халке

Россия / Карачаево-Черкесская Республика     44°21′22″N   41°55′28″E
темп.,
°C
ветер,
м/с
пор.,
м/с
влажн.,
%
обл.,
%
осадки,
мм/ч
давл.,
гПа
погр.,
м
13 июня, вс
вс1300:00+14юз229419 0.6 101334
03:00+13юз2293100 0.9 101429
06:00+15зюз2392100 0.5 101386
09:00+15зсз1292100 1.2 1014215
12:00+17с118776 0.0 1013375
15:00+20с227599 0.6 1012997
18:00+19сз2287100 1.9 101287
21:00+15зюз2293100 4.8 101427
14 июня, пн
пн1400:00+14юз229292 0.0 101318
03:00+12ююз22915 0.0 101319
06:00+14ююз22880 0.0 101369
09:00+19в23771 0.0 1012610
12:00+22в456999 0.0 10111226
15:00+23всв556935 0.1 10101317
18:00+21в58811 0.0 1010629
21:00+16в259299 0.0 101083
15 июня, вт
вт1500:00+15юв229376 0.0 100918
03:00+14юв1193100 0.0 100813
06:00+16ю23877 0.0 100884
09:00+21зсз11728 0.0 1009660
12:00+23зсз336925 0.0 10091188
15:00+24зсз437088 0.1 10091160
18:00+22зсз23820 0.2 1010400
21:00+18зсз11910 0.3 101111
16 июня, ср
ср1600:00+16юз119424 0.0 101011
03:00+17в019458 0.1 100911
06:00+18зюз229349 0.0 101099
09:00+17зсз4795100 0.4 1011506
12:00+16зсз3697100 0.6 1013524
15:00+16зсз2496100 0.8 1013513
18:00+17зюз239489 0.1 1013235
21:00+15зюз119534 0.1 101312
17 июня, чт
чт1700:00+16юз0097100 0.3 101321
03:00+16в1199100 0.4 101227
06:00+16юв019799 0.1 101170
09:00+18с1193100 0.1 1010323
12:00+20ссз328893 0.2 1010605
15:00+20сз459288 1.2 1011503
18:00+16з61098100 7.9 1014511
21:00+15з249536 10.7 101573